Location: *
(43.9905°S, 176.4941°W)
Time: 17:21:48
(UTC+00:00)

Cosmos 1295 Rocket - Pass Details

Date: 08 December 2019
Orbit: 944 x 994 km, 82.9° (Epoch: 26 January)

Event Time Altitude Azimuth Distance (km) Brightness Sun altitude
Rises 10:03:23 0° 189° (S) 3,662 8.9 -19.9°
Reaches altitude 10° 10:05:55 10° 189° (S) 2,706 7.9 -20.1°
Maximum altitude 10:12:07 87° 276° (W) 962 4.4 -20.5°
Enters shadow 10:14:45 37° 4° (N) 1,446 4.9 -20.6°
